Location: *
(58.7167°N, 26.1833°E)
Time: 03:07:45
(UTC+00:00)

Cosmos 2322 - Pass Details

Date: 25 August 2019
Orbit: 838 x 857 km, 71.0° (Epoch: 19 September)

Event Time Altitude Azimuth Distance (km) Brightness Sun altitude
Rises 20:29:00 0° 321° (NW) 3,434 8.5 -17.3°
Reaches altitude 10° 20:31:28 10° 323° (NW) 2,498 7.4 -17.4°
Maximum altitude 20:37:14 77° 50° (NE) 885 3.8 -17.7°
Enters shadow 20:40:22 28° 132° (SE) 1,557 4.6 -17.9°
